EW1857 Weather Reports


Display with metric or nautical units.
time (UTC)temp
F
wind
direction
speed
MPH
gust
MPH
rain 1hr
in
rain 24hr
in
rain mn
in
humidity
%
barometer
mb
20260507213418 61 0.0 0.0 0.00 0.00 0.00 60 1009.8
20260507212924 61 0.0 0.0 0.00 0.00 0.00 60 1009.6
20260507212425 61 0.0 0.0 0.00 0.00 0.00 60 1009.6
20260507211927 61 0.0 0.0 0.00 0.00 0.00 61 1009.6
20260507210917 61 0.0 0.0 0.00 0.00 0.00 64 1009.5
20260507210421 61 0.0 0.0 0.00 0.00 0.00 63 1009.4
20260507205923 61 0.0 0.0 0.00 0.00 0.00 62 1009.4
20260507205421 61 0.0 0.0 0.00 0.00 0.00 62 1009.5
20260507204515 61 0.0 0.0 0.00 0.00 0.00 62 1009.3
20260507203517 62 0.0 0.0 0.00 0.00 0.00 62 1009.4
20260507202524 62 0.0 0.0 0.00 0.00 0.00 62 1009.2
20260507201516 62 0.0 0.0 0.00 0.00 0.00 60 1009.1
20260507200520 62 0.0 0.0 0.00 0.00 0.00 61 1009.1
20260507195417 62 0.0 0.0 0.00 0.00 0.00 60 1009.1
20260507194421 62 0.0 0.0 0.00 0.00 0.00 59 1008.7
20260507193925 62 0.0 0.0 0.00 0.00 0.00 58 1008.7
20260507192919 63 0.0 0.0 0.00 0.00 0.00 57 1008.6
20260507192423 63 0.0 0.0 0.00 0.00 0.00 57 1008.6
20260507191121 63 0.0 0.0 0.00 0.00 0.00 56 1008.2
20260507185916 63 0.0 0.0 0.00 0.00 0.00 56 1007.9
20260507185416 64 0.0 0.0 0.00 0.00 0.00 55 1007.8
20260507184415 64 0.0 0.0 0.00 0.00 0.00 54 1008.0
20260507183923 64 0.0 0.0 0.00 0.00 0.00 54 1008.0
20260507182917 64 0.0 0.0 0.00 0.00 0.00 53 1007.7
20260507182425 65 0.0 0.0 0.00 0.00 0.00 52 1007.7
20260507181925 65 0.0 0.0 0.00 0.00 0.00 52 1007.7
20260507180917 65 0.0 0.0 0.00 0.00 0.00 52 1007.4
20260507180424 65 0.0 0.0 0.00 0.00 0.00 51 1007.4
20260507175325 66 0.0 0.0 0.00 0.00 0.00 50 1007.4
20260507174320 66 0.0 0.0 0.00 0.00 0.00 49 1007.3
20260507173417 67 0.0 0.0 0.00 0.00 0.00 48 1007.3
20260507172417 67 0.0 0.0 0.00 0.00 0.00 47 1007.2
20260507171921 68 0.0 0.0 0.00 0.00 0.00 47 1007.2
20260507171426 68 0.0 0.0 0.00 0.00 0.00 47 1007.2
20260507170521 68 0.0 0.0 0.00 0.00 0.00 47 1006.9
20260507165421 68 0.0 0.0 0.00 0.00 0.00 46 1006.9
20260507164925 67 0.0 0.0 0.00 0.00 0.00 48 1006.5
20260507163916 67 0.0 0.0 0.00 0.00 0.00 48 1006.5
20260507163424 67 0.0 0.0 0.00 0.00 0.00 48 1006.5
20260507162417 67 0.0 0.0 0.00 0.00 0.00 47 1006.2
20260507161421 68 0.0 0.0 0.00 0.00 0.00 45 1006.3
20260507160920 68 0.0 0.0 0.00 0.00 0.00 44 1006.3
20260507160424 69 0.0 0.0 0.00 0.00 0.00 44 1006.3
20260507155925 69 0.0 0.0 0.00 0.00 0.00 44 1006.3
20260507154919 70 0.0 0.0 0.00 0.00 0.00 45 1006.5
20260507154423 70 0.0 0.0 0.00 0.00 0.00 44 1006.5
20260507153416 70 0.0 0.0 0.00 0.00 0.00 44 1006.4
20260507152416 70 0.0 0.0 0.00 0.00 0.00 42 1006.4
20260507151417 70 0.0 0.0 0.00 0.00 0.00 42 1006.4
20260507150924 70 0.0 0.0 0.00 0.00 0.00 41 1006.4
20260507150424 70 0.0 0.0 0.00 0.00 0.00 41 1006.4
20260507145926 70 0.0 0.0 0.00 0.00 0.00 41 1006.4
20260507145424 70 0.0 0.0 0.00 0.00 0.00 40 1006.4
20260507144923 71 0.0 0.0 0.00 0.00 0.00 40 1006.3
20260507143919 72 0.0 0.0 0.00 0.00 0.00 40 1006.3
20260507143423 72 0.0 0.0 0.00 0.00 0.00 39 1006.3
20260507142421 73 0.0 0.0 0.00 0.00 0.00 40 1006.4
20260507141925 73 0.0 0.0 0.00 0.00 0.00 40 1006.4
20260507141423 73 0.0 0.0 0.00 0.00 0.00 40 1006.4
20260507140518 73 0.0 0.0 0.00 0.00 0.00 38 1006.6
20260507135416 74 0.0 0.0 0.00 0.00 0.00 37 1006.7
20260507134422 74 0.0 0.0 0.00 0.00 0.00 38 1006.7
20260507133923 74 0.0 0.0 0.00 0.00 0.00 39 1006.7
20260507133425 74 0.0 0.0 0.00 0.00 0.00 38 1006.7
20260507132418 74 0.0 0.0 0.00 0.00 0.00 39 1006.7
20260507131923 74 0.0 0.0 0.00 0.00 0.00 39 1006.7
20260507131424 74 0.0 0.0 0.00 0.00 0.00 40 1006.7
20260507130919 75 0.0 0.0 0.00 0.00 0.00 41 1007.0
20260507130423 74 0.0 0.0 0.00 0.00 0.00 41 1007.0
20260507125924 74 0.0 0.0 0.00 0.00 0.00 42 1007.0
20260507125425 75 0.0 0.0 0.00 0.00 0.00 41 1007.0
20260507124418 74 0.0 0.0 0.00 0.00 0.00 43 1007.0
20260507123922 74 0.0 0.0 0.00 0.00 0.00 43 1007.0
20260507123424 74 0.0 0.0 0.00 0.00 0.00 44 1007.0
20260507122418 74 0.0 0.0 0.00 0.00 0.00 42 1007.4
20260507121923 74 0.0 0.0 0.00 0.00 0.00 42 1007.5
20260507120920 74 0.0 0.0 0.00 0.00 0.00 43 1007.5
20260507120424 74 0.0 0.0 0.00 0.00 0.00 44 1007.5
20260507115925 73 0.0 0.0 0.00 0.00 0.00 43 1007.5
20260507114916 74 0.0 0.0 0.00 0.00 0.00 44 1007.5
20260507113915 75 0.0 0.0 0.00 0.00 0.00 43 1007.5
20260507112917 75 0.0 0.0 0.00 0.00 0.00 44 1007.6
20260507112422 75 0.0 0.0 0.00 0.00 0.00 43 1007.6
20260507111923 76 0.0 0.0 0.00 0.00 0.00 43 1007.6
20260507111425 76 0.0 0.0 0.00 0.00 0.00 44 1007.6
20260507110927 75 0.0 0.0 0.00 0.00 0.00 45 1007.7
20260507105920 75 0.0 0.0 0.00 0.00 0.00 44 1007.7
20260507105425 75 0.0 0.0 0.00 0.00 0.00 45 1007.7
20260507104925 74 0.0 0.0 0.00 0.00 0.00 46 1007.9
20260507103916 73 0.0 0.0 0.00 0.00 0.00 47 1007.9
20260507102920 74 0.0 0.0 0.00 0.00 0.00 47 1007.1
20260507102424 74 0.0 0.0 0.00 0.00 0.00 46 1007.1
20260507101418 75 0.0 0.0 0.00 0.00 0.00 46 1007.1
20260507100520 74 0.0 0.0 0.00 0.00 0.00 48 1007.9
20260507100024 74 0.0 0.0 0.00 0.00 0.00 47 1007.9
20260507094921 74 0.0 0.0 0.00 0.00 0.00 47 1007.8
20260507093622 74 0.0 0.0 0.00 0.00 0.00 48 1007.8
20260507092916 74 0.0 0.0 0.00 0.00 0.00 48 1007.7
20260507091921 74 0.0 0.0 0.00 0.00 0.00 47 1007.7
20260507091426 74 0.0 0.0 0.00 0.00 0.00 49 1007.7
20260507090421 72 0.0 0.0 0.00 0.00 0.00 50 1007.4
20260507085922 72 0.0 0.0 0.00 0.00 0.00 51 1007.4
20260507085423 73 0.0 0.0 0.00 0.00 0.00 50 1007.4
20260507084924 73 0.0 0.0 0.00 0.00 0.00 52 1007.3
20260507083916 72 0.0 0.0 0.00 0.00 0.00 52 1007.3
20260507083424 72 0.0 0.0 0.00 0.00 0.00 51 1007.3
20260507082419 72 0.0 0.0 0.00 0.00 0.00 52 1007.2
20260507081926 73 0.0 0.0 0.00 0.00 0.00 51 1007.3
20260507080922 72 0.0 0.0 0.00 0.00 0.00 53 1007.2
20260507080425 71 0.0 0.0 0.00 0.00 0.00 52 1007.2
20260507075924 71 0.0 0.0 0.00 0.00 0.00 53 1007.2
20260507074918 71 0.0 0.0 0.00 0.00 0.00 54 1006.8
20260507074425 71 0.0 0.0 0.00 0.00 0.00 55 1006.8
20260507073927 70 0.0 0.0 0.00 0.00 0.00 55 1006.8
20260507073423 70 0.0 0.0 0.00 0.00 0.00 56 1006.8
20260507072519 70 0.0 0.0 0.00 0.00 0.00 56 1006.4
20260507071422 69 0.0 0.0 0.00 0.00 0.00 57 1006.4
20260507070520 68 0.0 0.0 0.00 0.00 0.00 59 1006.5
20260507065417 66 0.0 0.0 0.00 0.00 0.00 62 1006.5
20260507064421 66 0.0 0.0 0.00 0.00 0.00 62 1006.2
20260507063325 65 0.0 0.0 0.00 0.00 0.00 65 1006.1
20260507062415 64 0.0 0.0 0.00 0.00 0.00 66 1005.8
20260507061418 64 0.0 0.0 0.00 0.00 0.00 67 1005.8
20260507060416 63 0.0 0.0 0.00 0.00 0.00 68 1005.5
20260507055420 62 0.0 0.0 0.00 0.00 0.00 69 1005.5
20260507054925 62 0.0 0.0 0.00 0.00 0.00 69 1005.3
20260507054422 62 0.0 0.0 0.00 0.00 0.00 69 1005.3
20260507053923 62 0.0 0.0 0.00 0.00 0.00 69 1005.3
20260507052918 61 0.0 0.0 0.00 0.00 0.00 70 1005.1
20260507052422 61 0.0 0.0 0.00 0.00 0.00 70 1005.1
20260507051924 61 0.0 0.0 0.00 0.00 0.00 70 1005.1
20260507051424 61 0.0 0.0 0.00 0.00 0.00 70 1005.1
20260507050926 61 0.0 0.0 0.00 0.00 0.00 70 1005.0
20260507045915 60 0.0 0.0 0.00 0.00 0.00 70 1004.9
20260507044919 59 0.0 0.0 0.00 0.00 0.00 70 1004.6
20260507044021 59 0.0 0.0 0.00 0.00 0.00 70 1004.6
20260507042917 58 0.0 0.0 0.00 0.00 0.00 71 1004.8
20260507041922 58 0.0 0.0 0.00 0.00 0.00 71 1004.8
20260507041424 58 0.0 0.0 0.00 0.00 0.00 71 1004.8
20260507040927 58 0.0 0.0 0.00 0.00 0.00 71 1004.3
20260507040423 58 0.0 0.0 0.00 0.00 0.00 71 1004.3
20260507035926 58 0.0 0.0 0.00 0.00 0.00 71 1004.3
20260507034920 58 0.0 0.0 0.00 0.00 0.00 71 1003.9
20260507034025 58 0.0 0.0 0.00 0.00 0.00 71 1003.9
20260507033022 58 0.0 0.0 0.00 0.00 0.00 71 1004.0
20260507032120 57 0.0 0.0 0.00 0.00 0.00 71 1003.9
20260507031024 57 0.0 0.0 0.00 0.00 0.00 71 1003.8
20260507025916 57 0.0 0.0 0.00 0.00 0.00 71 1003.8
20260507025425 57 0.0 0.0 0.00 0.00 0.00 71 1003.8
20260507024416 58 0.0 0.0 0.00 0.00 0.00 71 1003.4
20260507023417 58 0.0 0.0 0.00 0.00 0.00 71 1003.4
20260507022416 58 0.0 0.0 0.00 0.00 0.00 71 1003.4
20260507021420 58 0.0 0.0 0.00 0.00 0.00 71 1003.4
20260507020924 58 0.0 0.0 0.00 0.00 0.00 71 1003.4
20260507015918 59 0.0 0.0 0.00 0.00 0.00 71 1003.4
20260507015422 59 0.0 0.0 0.00 0.00 0.00 71 1003.4
20260507014925 59 0.0 0.0 0.00 0.00 0.00 71 1003.2
20260507014425 59 0.0 0.0 0.00 0.00 0.00 71 1003.2
20260507013924 59 0.0 0.0 0.00 0.00 0.00 71 1003.1
20260507013425 58 0.0 0.0 0.00 0.00 0.00 71 1003.1
20260507012318 58 0.0 0.0 0.00 0.00 0.00 71 1002.7
20260507011420 58 0.0 0.0 0.00 0.00 0.00 71 1002.7
20260507010516 58 0.0 0.0 0.00 0.00 0.00 71 1002.1
20260507005420 59 0.0 0.0 0.00 0.00 0.00 71 1002.1
20260507004925 59 0.0 0.0 0.00 0.00 0.00 71 1002.1
20260507004423 59 0.0 0.0 0.00 0.00 0.00 71 1002.1
20260507003419 59 0.0 0.0 0.00 0.00 0.00 71 1002.1
20260507002716 59 0.0 0.0 0.00 0.00 0.00 71 1002.0
20260507001721 60 0.0 0.0 0.00 0.00 0.00 71 1002.0
20260507000625 60 0.0 0.0 0.00 0.00 0.00 71 1001.8
20260506235016 60 0.0 0.0 0.00 0.00 0.00 70 1001.4
20260506234021 60 0.0 0.0 0.00 0.00 0.00 70 1001.4
20260506232921 61 0.0 0.0 0.00 0.00 0.00 69 1001.4
20260506232423 61 0.0 0.0 0.00 0.00 0.00 69 1001.4
20260506231419 61 0.0 0.0 0.00 0.00 0.00 68 1001.4
20260506230924 61 0.0 0.0 0.00 0.00 0.00 68 1001.3
20260506225916 61 0.0 0.0 0.00 0.00 0.00 68 1001.3
20260506225217 61 0.0 0.0 0.00 0.00 0.00 68 1001.3
20260506224118 62 0.0 0.0 0.00 0.00 0.00 67 1001.3
20260506223421 62 0.0 0.0 0.00 0.00 0.00 67 1001.3
20260506222925 62 0.0 0.0 0.00 0.00 0.00 67 1001.3
20260506222423 62 0.0 0.0 0.00 0.00 0.00 66 1001.3
20260506221926 62 0.0 0.0 0.00 0.00 0.00 66 1001.4
20260506220916 62 0.0 0.0 0.00 0.00 0.00 66 1001.3
20260506220426 63 0.0 0.0 0.00 0.00 0.00 65 1001.3
20260506215517 63 0.0 0.0 0.00 0.00 0.00 65 1001.5
20260506214526 63 0.0 0.0 0.00 0.00 0.00 64 1001.2